Location: Oberwangen
(47.4286°N, 8.9679°E)
Time: 15:08:24
(UTC+00:00)

Cosmos 1844 Rocket - Pass Details

Date: 20 June 2021
Orbit: 823 x 846 km, 71.0° (Epoch: 03 August)

Event Time Altitude Azimuth Distance (km) Brightness Sun altitude
Rises 21:10:05 0° 325° (NW) 3,413 7.9 -12.8°
Reaches altitude 10° 21:12:47 10° 315° (NW) 2,475 6.5 -13.1°
Maximum altitude 21:17:41 31° 255° (WSW) 1,448 4.1 -13.5°
Drops below altitude 10° 21:22:34 10° 195° (SSW) 2,461 4.7 -13.9°
Enters shadow 21:22:44 - 195° (SSW) 2,513 4.7 -13.9°
